This is the latest recevied weather packets stored in our database for station/object KJ7IVE-13. If no packets are shown the sender has not sent any weather packets the latest 1 day(s).
| Time | Temp. | Humidity | Pressure | Rain* | Wind** | Luminosity | Snow |
|---|---|---|---|---|---|---|---|
| 1778080697 | 10.56° C | 10% | 1020.7 hPa | 0 mm | - | 329 W/m² | - |
| 1778080393 | 10° C | 10% | 1020.2 hPa | 0 mm | - | 322 W/m² | - |
| 1778079484 | 10° C | 10% | 1020.2 hPa | 0 mm | - | 273 W/m² | - |
| 1778079180 | 10° C | 10% | 1020 hPa | 0 mm | - | 270 W/m² | - |
| 1778078878 | 10° C | 10% | 1020.1 hPa | 0 mm | - | 279 W/m² | - |
| 1778078574 | 9.44° C | 10% | 1019.8 hPa | 0 mm | - | 255 W/m² | - |
| 1778077969 | 10.56° C | 10% | 1019.9 hPa | 0 mm | - | 239 W/m² | - |
| 1778077668 | 10° C | 10% | 1019.9 hPa | 0 mm | - | 211 W/m² | - |
| 1778077366 | 9.44° C | 10% | 1020 hPa | 0 mm | - | 196 W/m² | - |
| 1778074942 | 8.89° C | 10% | 1019.2 hPa | 0 mm | - | 94 W/m² | - |
| 1778074033 | 8.89° C | 10% | 1019 hPa | 0 mm | - | 53 W/m² | - |
| 1778073730 | 8.33° C | 10% | 1018.7 hPa | 0 mm | - | 48 W/m² | - |
| 1778073428 | 8.33° C | 10% | 1018.7 hPa | 0 mm | - | 41 W/m² | - |
| 1778071913 | 5.56° C | 10% | 1018.4 hPa | 0 mm | - | 19 W/m² | - |
| 1778071611 | 5.56° C | 10% | 1018.4 hPa | 0 mm | - | 13 W/m² | - |
| 1778071309 | 5.56° C | 10% | 1018.3 hPa | 0 mm | - | 12 W/m² | - |
| 1778071006 | 5.56° C | 10% | 1018 hPa | 0 mm | - | 8 W/m² | - |
| 1778070401 | 6.67° C | 10% | 1017.8 hPa | 0 mm | - | 3 W/m² | - |
| 1778069796 | 6.67° C | 10% | 1017.8 hPa | 0 mm | - | 0 W/m² | - |
| 1778069492 | 6.67° C | 10% | 1017.8 hPa | 0 mm | - | 0 W/m² | - |
| 1778068887 | 7.78° C | 10% | 1017.4 hPa | 0 mm | - | 0 W/m² | - |
| 1778068586 | 7.78° C | 10% | 1017.4 hPa | 0 mm | - | 0 W/m² | - |
| 1778066770 | 7.78° C | 10% | 1017.4 hPa | 0 mm | - | 0 W/m² | - |
| 1778066165 | 8.33° C | 10% | 1017.3 hPa | 0 mm | - | 0 W/m² | - |
| 1778065560 | 8.89° C | 10% | 1016.8 hPa | 0 mm | - | 0 W/m² | - |
* Rain latest hour (hover to see other rain measurements)
** Current wind speed in m/s (hover to see current wind gust speed)